FW1358 Weather Reports


Display with metric or nautical units.
time (UTC)temp
F
wind
direction
speed
MPH
gust
MPH
rain 1hr
in
rain 24hr
in
rain mn
in
humidity
%
barometer
mb
20260505054303 65 221 0.0 0.0 0.00 0.00 0.00 58 1012.4
20260505053803 65 221 0.0 0.0 0.00 0.00 0.00 57 1012.3
20260505052803 65 221 0.0 0.0 0.00 0.00 0.00 57 1012.2
20260505052304 65 221 0.0 0.0 0.00 0.00 0.00 57 1012.2
20260505051803 66 221 0.0 0.0 0.00 0.00 0.00 57 1012.2
20260505040803 67 221 0.0 0.0 0.00 0.00 0.00 54 1011.8
20260505035304 67 221 0.0 0.0 0.00 0.00 0.00 54 1011.8
20260505034803 67 221 0.0 0.0 0.00 0.00 0.00 54 1011.8
20260505032803 68 221 0.0 1.0 0.00 0.00 0.00 53 1011.8
20260505032304 68 221 0.0 1.0 0.00 0.00 0.00 53 1011.8
20260505031803 68 41 0.0 0.0 0.00 0.00 0.00 54 1011.8
20260505030303 68 41 0.0 1.0 0.00 0.00 0.00 53 1011.9
20260505025803 68 41 0.0 1.0 0.00 0.00 0.00 53 1011.9
20260505025304 68 245 0.0 0.0 0.00 0.00 0.00 53 1011.9
20260505024303 68 245 0.0 1.0 0.00 0.00 0.00 54 1011.8
20260505022304 69 300 0.0 0.0 0.00 0.00 0.00 53 1011.8
20260505021803 69 300 0.0 0.0 0.00 0.00 0.00 52 1011.8
20260505021303 69 300 0.0 0.0 0.00 0.00 0.00 52 1011.8
20260505020803 70 300 0.0 0.0 0.00 0.00 0.00 52 1011.8
20260505020303 70 300 0.0 0.0 0.00 0.00 0.00 52 1011.7
20260505015803 70 300 0.0 0.0 0.00 0.00 0.00 51 1011.6
20260505015304 70 300 0.0 0.0 0.00 0.00 0.00 51 1011.7
20260505014303 71 300 0.0 0.0 0.00 0.00 0.00 51 1011.6
20260505012803 72 300 0.0 0.0 0.00 0.00 0.00 51 1011.6
20260505012304 72 300 0.0 0.0 0.00 0.00 0.00 50 1011.6
20260505010803 73 300 0.0 0.0 0.00 0.00 0.00 49 1011.6
20260505004303 74 300 0.0 0.0 0.00 0.00 0.00 47 1011.5
20260505002803 75 300 0.0 0.0 0.00 0.00 0.00 45 1011.4
20260505002304 75 300 0.0 0.0 0.00 0.00 0.00 45 1011.4
20260505001803 76 300 0.0 1.0 0.00 0.00 0.00 44 1011.3
20260505001303 76 300 0.0 1.0 0.00 0.00 0.00 44 1011.3
20260505000803 76 139 0.0 1.0 0.00 0.00 0.00 43 1011.4
20260504235304 76 138 0.0 0.0 0.00 0.00 0.00 42 1011.4
20260504234802 77 138 0.0 1.0 0.00 0.00 0.00 41 1011.4
20260504232803 77 284 0.0 3.0 0.00 0.00 0.00 40 1011.5
20260504230803 78 26 0.0 3.0 0.00 0.00 0.00 42 1011.4
20260504224803 78 338 0.0 1.0 0.00 0.00 0.00 41 1011.4
20260504224303 79 62 0.0 2.0 0.00 0.00 0.00 40 1011.5
20260504223803 79 20 0.0 5.0 0.00 0.00 0.00 40 1011.6
20260504222305 79 350 0.0 7.0 0.00 0.00 0.00 38 1011.5
20260504215803 81 224 0.0 1.0 0.00 0.00 0.00 40 1011.4
20260504214803 81 118 0.0 3.0 0.00 0.00 0.00 41 1011.4
20260504213803 81 35 0.0 6.0 0.00 0.00 0.00 38 1011.3
20260504213303 81 345 0.0 6.0 0.00 0.00 0.00 39 1011.4
20260504212803 82 34 0.0 3.0 0.00 0.00 0.00 38 1011.3
20260504211804 82 191 0.0 5.0 0.00 0.00 0.00 37 1011.4
20260504210803 82 315 0.0 6.0 0.00 0.00 0.00 36 1011.4
20260504205803 82 232 0.0 6.0 0.00 0.00 0.00 40 1011.5
20260504205304 82 11 0.0 6.0 0.00 0.00 0.00 39 1011.6
20260504204803 82 76 1.0 6.0 0.00 0.00 0.00 38 1011.6
20260504204303 82 4 0.0 12.0 0.00 0.00 0.00 38 1011.7
20260504203802 82 45 0.0 12.0 0.00 0.00 0.00 39 1011.7
20260504202304 82 354 1.0 8.0 0.00 0.00 0.00 38 1011.8
20260504200803 83 315 0.0 6.0 0.00 0.00 0.00 39 1012.0
20260504200303 82 37 0.0 9.0 0.00 0.00 0.00 41 1012.0
20260504192803 82 257 0.0 8.0 0.00 0.00 0.00 40 1012.7
20260504191303 82 138 0.0 6.0 0.00 0.00 0.00 41 1012.8
20260504190803 82 138 0.0 7.0 0.00 0.00 0.00 41 1012.9
20260504185802 82 14 0.0 10.0 0.00 0.00 0.00 39 1012.9
20260504184803 82 177 0.0 6.0 0.00 0.00 0.00 42 1013.1
20260504183303 82 10 1.0 10.0 0.00 0.00 0.00 41 1013.3
20260504181303 81 352 0.0 3.0 0.00 0.00 0.00 43 1013.3
20260504175304 79 341 0.0 8.0 0.00 0.00 0.00 45 1013.7
20260504173803 79 77 0.0 3.0 0.00 0.00 0.00 47 1013.7
20260504172304 78 351 0.0 1.0 0.00 0.00 0.00 45 1013.9
20260504171303 78 317 0.0 3.0 0.00 0.00 0.00 46 1014.0
20260504160303 76 21 0.0 9.0 0.00 0.00 0.00 48 1014.9
20260504150802 71 315 0.0 3.0 0.00 0.00 0.00 51 1015.3
20260504120304 53 268 0.0 0.0 0.00 0.00 0.00 73 1015.7
20260504110303 51 268 0.0 0.0 0.00 0.00 0.00 75 1015.1
20260504081303 53 276 0.0 0.0 0.00 0.00 0.00 68 1015.5
20260504080303 53 276 0.0 0.0 0.00 0.00 0.00 69 1015.5
20260504070303 52 276 0.0 0.0 0.00 0.00 0.00 69 1015.8